This demonstration page uses our WeatherBlox Daily Observations layout. Learn more.

Left ArrowRight Arrow

Hourly Observations for June 1, 2020

Temp ( °F °C ) Dew Point ( °F °C ) Humidity (%) Winds ( mph kmh ) Pressure ( in mb ) Visibility ( mi km ) Precip ( " mm )
12:53 am 00:53 Mostly Clear 67 19.4 52 11.1 59 59 Calm 30.11 1020 10 16 0.00 0.00
1:53 am 01:53 Clear 67 19.4 51 10.6 57 57 Calm 30.11 1020 10 16 0.00 0.00
2:53 am 02:53 Clear 64 17.8 52 11.1 65 65 Calm 30.11 1020 10 16 0.00 0.00
3:53 am 03:53 Clear 60 15.6 54 12.2 80 80 Calm 30.12 1020 10 16 0.00 0.00
4:53 am 04:53 Cloudy 63 17.2 54 12.2 73 73 Calm 30.12 1020 10 16 0.00 0.00
5:53 am 05:53 Mostly Clear 63 17.2 56 13.3 78 78 Calm 30.14 1021 10 16 0.00 0.00
6:53 am 06:53 Sunny 64 17.8 58 14.4 81 81 NE 3 6 30.16 1021 10 16 0.00 0.00
7:53 am 07:53 Sunny 68 20 61 16.1 78 78 NNE 6 9 30.17 1022 10 16 0.00 0.00
8:53 am 08:53 Mostly Cloudy 71 21.7 62 16.7 73 73 ENE 10 17 30.20 1023 10 16 0.00 0.00
9:42 am 09:42 Mostly Cloudy 72 22.2 62 16.7 71 71 ENE 10 17 30.21 1023 10 16 0.00 0.00
9:53 am 09:53 Cloudy 73 22.8 62 16.7 69 69 E 9 15 30.22 1023 10 16 0.00 0.00
10:32 am 10:32 Mostly Cloudy 75 23.9 62 16.7 64 64 ESE 8 13 30.21 1023 10 16 0.00 0.00
10:53 am 10:53 Mostly Cloudy 75 23.9 61 16.1 62 62 E 10 17 30.22 1023 10 16 0.00 0.00
11:27 am 11:27 Mostly Cloudy 77 25 61 16.1 58 58 E 12 19 30.20 1023 10 16 0.00 0.00
11:53 am 11:53 Mostly Cloudy 77 25 59 15 54 54 SE 12 19 30.22 1023 10 16 0.00 0.00
12:53 pm 12:53 Cloudy 77 25 58 14.4 52 52 ESE 10 17 30.22 1023 10 16 0.00 0.00
1:53 pm 13:53 Mostly Cloudy 78 25.6 58 14.4 50 50 E 9 15 30.20 1023 10 16 0.00 0.00
2:53 pm 14:53 Mostly Sunny 80 26.7 59 15 49 49 ESE 8 13 30.18 1022 10 16 0.00 0.00
3:53 pm 15:53 Partly Cloudy 80 26.7 59 15 49 49 SE 8 13 30.18 1022 10 16 0.00 0.00
4:53 pm 16:53 Mostly Cloudy 81 27.2 58 14.4 45 45 ESE 8 13 30.16 1021 10 16 0.00 0.00
5:53 pm 17:53 Partly Cloudy 81 27.2 59 15 47 47 VRB 3 6 30.15 1021 10 16 0.00 0.00
6:53 pm 18:53 Mostly Sunny 82 27.8 59 15 46 46 VRB 3 6 30.14 1021 10 16 0.00 0.00
7:53 pm 19:53 Sunny 80 26.7 60 15.6 51 51 E 7 11 30.14 1021 10 16 0.00 0.00
8:53 pm 20:53 Clear 77 25 60 15.6 56 56 E 5 7 30.16 1021 10 16 0.00 0.00
9:53 pm 21:53 Clear 75 23.9 60 15.6 60 60 E 5 7 30.17 1022 10 16 0.00 0.00
10:53 pm 22:53 Clear 70 21.1 61 16.1 73 73 Calm 30.19 1022 10 16 0.00 0.00
11:53 pm 23:53 Clear 67 19.4 61 16.1 81 81 Calm 30.19 1023 10 16 0.00 0.00

Powered by AerisWeather